Location: Sevilla
(37.3933°N, 5.9839°W)
Time: 05:38:41
(UTC+02:00)

Transit 2A - Pass Details

Date: 30 June 2024
Orbit: 591 x 960 km, 66.7° (Epoch: 15 July)

Event Time Altitude Azimuth Distance (km) Brightness Sun altitude
Rises 01:21:07 0° 326° (NW) 3,596 10.6 -27.5°
Reaches altitude 10° 01:23:42 10° 322° (NW) 2,673 9.6 -27.6°
Maximum altitude 01:29:46 51° 248° (WSW) 1,193 6.8 -27.9°
Enters shadow 01:30:03 50° 239° (WSW) 1,198 6.8 -28.0°
Drops below altitude 10° 01:35:48 10° 175° (S) 2,659 - -28.2°
Sets 01:38:23 0° 170° (S) 3,574 - -28.4°
